Wind_Speed
23 25 27 29 31 33 35 36 37 38 39 40 40 39 38 40 41 40 40 38 36 34 32 31 29 28 26 26 26 25 25 24 23 22 21 20 19 18 17 17 18 18 19 18
20 23 25 26 29 31 33 35 37 39 40 41 41 41 41 43 44 44 43 42 40 38 36 33 31 29 28 28 27 27 27 27 26 25 23 22 21 20 20 19 19 19 19 19
18 20 22 25 28 30 32 34 36 38 40 41 42 41 42 44 45 46 45 45 43 41 39 36 34 32 30 30 28 28 29 30 29 28 26 25 24 23 22 21 20 20 20 20
16 19 22 24 27 30 32 34 35 36 37 38 38 39 38 40 42 43 44 44 43 41 39 36 34 32 31 30 30 31 32 33 33 31 32 29 27 25 23 21 21 22 22 22
18 21 24 27 29 32 34 35 36 36 36 37 35 37 35 35 36 37 39 40 40 39 37 36 34 33 32 32 32 34 36 36 35 36 34 31 28 25 23 22 22 22 22 23
23 27 30 33 36 38 40 40 41 40 39 38 35 35 35 33 32 32 33 34 35 35 34 34 35 34 34 34 34 35 37 38 38 40 36 32 28 24 21 21 21 22 22 23
30 34 38 40 41 42 43 44 44 43 41 38 35 34 33 31 29 28 28 29 30 31 32 33 35 35 36 36 36 37 39 40 41 41 35 30 24 21 19 20 20 21 22 23
36 40 42 43 44 45 45 44 42 42 40 37 34 32 30 28 26 25 26 26 27 29 31 33 34 35 36 36 37 39 41 39 39 38 30 24 20 18 18 18 20 21 22 23
41 42 44 45 45 44 42 40 39 38 37 33 30 28 26 25 24 23 24 24 25 26 29 31 32 34 36 35 36 37 38 37 35 28 21 18 17 17 17 18 19 21 22 23
42 42 40 38 36 34 32 28 25 24 24 23 22 19 18 20 20 21 22 22 23 25 26 28 30 31 31 33 33 32 32 30 25 19 14 13 15 16 18 19 20 22 23 24
38 35 32 29 28 25 22 18 15 13 13 14 14 14 12 13 13 15 16 18 19 21 22 24 26 28 28 27 27 24 20 18 14 12 12 12 14 17 19 20 21 23 24 25
33 29 25 23 23 20 17 12 8 5 6 8 7 6 7 9 8 9 10 10 12 14 16 15 16 17 16 15 15 13 9 8 8 9 10 12 15 18 20 22 23 24 25 26
30 26 23 21 19 17 14 10 5 2 2 3 3 1 3 3 4 4 3 2 2 4 6 5 4 4 5 7 7 7 7 7 7 10 13 15 17 19 20 22 23 24 24 25
28 26 23 22 21 19 15 12 10 10 10 9 7 5 3 2 1 1 3 4 5 5 4 3 3 5 6 7 7 7 7 8 10 12 15 18 19 20 20 21 22 22 22 23
26 25 23 22 21 19 18 17 15 13 13 12 12 10 7 6 6 6 7 7 7 7 6 5 5 6 6 5 5 6 7 10 12 15 16 18 18 18 18 18 18 18 19 20
25 24 22 22 20 18 17 17 17 17 16 15 14 13 10 9 9 8 8 8 8 7 7 6 5 3 3 4 5 7 9 11 12 14 15 16 16 16 15 15 16 17 18 20
24 24 22 20 19 18 18 17 17 17 16 15 15 14 13 11 11 10 10 11 10 9 7 5 3 1 1 2 4 5 7 9 10 12 13 15 15 15 15 16 16 17 19 20
23 23 22 20 19 18 17 17 16 16 16 15 14 14 14 12 13 13 13 14 13 11 9 7 5 4 4 3 4 6 7 9 11 13 14 16 16 17 17 18 18 18 19 20
22 21 21 19 18 17 17 16 15 15 15 14 14 13 13 13 13 14 15 15 14 13 11 9 8 7 6 6 6 7 8 10 11 13 14 16 16 17 18 18 19 19 19 20
20 20 19 18 16 16 15 15 15 15 15 14 13 13 13 13 14 14 14 14 14 12 11 10 9 8 8 8 8 9 10 11 13 14 15 16 17 18 18 19 19 19 19 20
18 19 18 17 16 16 15 14 14 14 14 14 13 13 13 14 14 13 13 13 12 12 11 10 10 9 9 9 10 10 11 13 14 16 17 17 18 18 19 20 20 20 19 19
16 15 16 16 15 14 14 13 13 13 13 13 12 12 12 12 12 12 12 12 12 12 12 12 11 12 12 12 13 14 14 15 16 17 17 18 18 19 19 19 19 18 18 18
16 13 14 14 13 13 13 12 12 12 11 11 10 10 10 10 10 11 12 12 13 14 14 14 14 14 15 16 16 17 17 17 17 17 18 18 18 18 18 17 17 16 16 15
18 14 12 12 12 12 11 11 11 11 10 9 8 7 7 7 8 10 11 12 13 14 15 15 15 16 16 17 17 18 18 18 18 17 17 17 17 17 16 16 15 15 14 13
21 15 12 11 10 10 9 9 9 9 8 7 6 5 5 5 7 8 10 12 13 14 15 16 16 17 17 17 18 18 18 18 18 18 17 17 17 17 16 16 15 14 13 13
24 18 13 10 10 9 8 7 7 7 6 5 5 4 4 5 5 7 9 11 12 14 15 16 16 16 17 17 17 17 17 18 18 18 19 19 19 19 18 18 17 16 15 14
Wind_Direction
254 257 258 260 261 263 265 266 267 267 268 268 268 269 268 267 267 265 265 266 267 269 272 274 277 278 281 281 280 276 272 268 265 262 260 259 258 258 259 264 268 269 268 268
261 263 266 267 268 269 270 270 271 270 270 270 269 268 267 266 266 266 266 266 267 269 270 271 273 274 277 276 274 270 268 265 262 259 256 254 255 257 259 261 262 263 263 262
269 272 272 273 273 273 273 273 273 273 273 272 271 269 267 266 266 266 266 265 265 265 266 267 269 270 270 269 267 263 261 260 258 258 254 249 249 252 255 257 259 258 260 262
278 278 277 276 275 274 274 274 275 275 275 275 274 273 267 267 267 267 266 265 265 264 264 262 263 263 262 260 257 254 254 254 254 255 251 244 242 246 250 254 258 260 262 264
288 285 282 279 278 277 277 276 275 275 275 275 276 277 274 272 270 269 267 265 263 262 260 258 257 256 255 253 250 247 250 251 250 250 247 243 239 240 243 250 257 261 264 268
294 289 287 285 283 282 281 280 278 276 275 276 277 279 278 277 275 272 268 264 261 258 255 252 251 250 249 246 245 245 247 249 248 246 246 243 239 235 239 247 254 260 265 271
298 296 293 291 289 288 287 286 284 281 279 280 280 280 280 279 277 273 266 260 256 252 249 246 245 244 242 241 241 243 245 247 245 246 246 243 240 237 242 249 256 263 268 274
305 302 299 295 293 291 289 287 285 283 282 282 281 279 279 277 273 271 265 259 253 248 244 242 242 241 240 239 240 241 243 243 243 245 243 244 245 244 249 255 260 268 274 277
311 308 304 301 299 297 294 288 284 281 279 276 274 274 274 269 268 267 264 258 252 248 245 241 241 241 240 238 238 241 242 240 241 241 245 247 250 254 259 264 271 277 281 283
318 315 312 310 308 306 303 297 290 280 273 267 266 266 266 262 264 267 268 262 256 252 247 243 241 241 238 238 238 242 242 239 235 236 242 249 253 258 267 275 282 285 287 288
329 327 324 322 321 319 315 310 299 282 264 253 254 256 255 255 262 268 269 267 262 255 250 250 247 244 242 240 240 237 237 228 231 240 247 253 261 272 281 285 288 290 289 289
343 343 341 340 338 335 332 326 315 298 248 237 237 234 243 255 261 272 282 274 266 256 256 261 251 248 242 229 225 223 213 214 226 241 255 268 276 283 286 288 288 290 289 288
353 355 355 357 359 359 2 2 3 40 134 169 180 196 242 274 278 278 290 300 250 240 248 250 241 221 202 191 196 198 202 217 237 257 271 279 283 286 287 286 286 285 285 285
6 8 12 17 24 31 37 49 66 84 100 102 97 97 98 95 55 62 68 102 124 134 145 156 128 138 158 166 177 194 225 244 261 272 279 283 285 289 289 285 286 284 282 281
16 21 27 33 39 44 50 61 72 87 92 96 92 87 92 81 73 74 84 100 116 125 124 126 131 140 161 181 206 231 252 267 277 282 288 289 291 292 293 288 288 284 281 279
24 28 33 39 43 49 55 65 77 85 88 89 89 84 87 77 75 76 77 87 97 116 120 121 129 145 190 237 258 266 275 280 284 288 292 294 296 299 296 293 290 286 283 281
28 31 35 40 45 52 61 68 78 84 89 90 88 82 78 72 71 73 74 75 80 82 84 87 91 64 342 288 290 290 292 296 299 301 303 303 303 303 300 297 293 289 287 284
29 34 38 43 48 55 61 70 77 83 87 86 85 83 79 76 78 78 78 76 73 72 70 65 54 40 25 3 337 324 317 313 310 309 309 309 306 305 303 300 297 293 290 288
28 31 37 43 49 55 61 69 73 78 81 80 80 82 83 84 81 78 76 73 69 66 62 54 45 33 22 8 354 343 334 327 321 316 313 311 310 307 305 302 298 295 291 289
26 29 36 44 48 53 59 65 69 72 75 73 76 81 83 79 77 74 69 65 62 59 52 45 36 27 17 7 355 344 335 328 322 319 316 313 310 307 304 301 298 295 292 291
25 30 36 42 49 55 58 60 60 65 67 73 78 81 82 80 76 70 64 59 56 53 49 43 35 25 13 2 352 343 335 330 326 323 320 316 312 309 307 305 302 299 295 292
22 27 31 36 45 51 53 55 56 60 66 73 79 81 81 78 72 64 58 53 51 49 45 40 30 19 9 1 354 348 342 338 334 331 328 324 321 318 316 313 310 306 301 296
22 24 26 32 41 47 50 54 52 54 61 69 76 81 81 76 67 59 53 49 47 44 40 33 24 16 9 3 359 355 351 347 345 342 339 336 333 331 328 324 320 316 311 306
24 26 27 30 37 43 48 52 50 51 56 64 74 79 77 71 63 56 51 47 44 39 34 28 23 17 12 8 3 0 358 357 355 354 353 352 350 348 344 340 336 332 328 323
23 23 26 30 33 36 42 45 45 45 51 57 63 65 60 56 54 50 46 42 38 33 30 27 23 19 15 10 7 7 8 9 10 10 10 8 6 3 360 356 354 352 350 347
22 22 22 23 21 21 28 34 31 30 32 39 47 42 39 39 40 42 40 36 33 30 29 27 24 20 17 15 15 16 18 20 21 22 23 23 20 18 16 13 10 9 8 7
Height
5854 5855 5854 5854 5853 5853 5852 5851 5851 5851 5850 5850 5851 5852 5853 5850 5850 5851 5852 5853 5855 5857 5858 5858 5859 5859 5858 5858 5858 5857 5857 5856 5856 5855 5855 5855 5855 5855 5856 5856 5856 5856 5856 5856
5851 5850 5849 5848 5847 5846 5844 5843 5842 5842 5840 5840 5841 5843 5842 5839 5839 5840 5842 5844 5846 5848 5849 5851 5851 5852 5852 5852 5852 5852 5851 5850 5850 5849 5849 5849 5849 5849 5850 5850 5851 5851 5851 5851
5847 5847 5844 5842 5840 5838 5836 5834 5833 5832 5830 5829 5830 5832 5830 5828 5828 5829 5831 5833 5835 5838 5840 5842 5843 5844 5845 5845 5845 5845 5845 5844 5843 5843 5842 5842 5842 5843 5843 5844 5845 5846 5846 5846
5844 5841 5839 5836 5833 5830 5828 5825 5823 5821 5820 5819 5818 5818 5820 5818 5818 5818 5819 5821 5824 5827 5830 5832 5834 5835 5836 5837 5837 5837 5837 5836 5835 5835 5834 5833 5834 5835 5837 5838 5839 5840 5840 5841
5840 5836 5833 5829 5826 5822 5818 5816 5813 5811 5809 5808 5808 5806 5809 5809 5809 5808 5809 5810 5813 5816 5819 5821 5824 5825 5827 5828 5829 5829 5829 5829 5828 5827 5826 5826 5827 5829 5831 5832 5833 5834 5834 5834
5834 5830 5826 5821 5816 5811 5807 5804 5802 5800 5798 5798 5798 5797 5798 5799 5799 5799 5799 5801 5803 5806 5809 5811 5813 5815 5817 5818 5819 5820 5821 5822 5820 5819 5818 5819 5821 5822 5824 5826 5827 5827 5828 5828
5828 5822 5816 5810 5805 5801 5795 5792 5788 5786 5786 5787 5788 5787 5789 5790 5790 5791 5791 5792 5794 5796 5799 5801 5803 5805 5807 5808 5810 5811 5812 5812 5812 5811 5811 5813 5814 5816 5818 5820 5821 5821 5822 5822
5820 5813 5805 5797 5792 5787 5783 5779 5777 5775 5775 5776 5778 5779 5781 5782 5783 5783 5784 5785 5786 5787 5789 5792 5793 5795 5797 5799 5800 5801 5802 5804 5804 5804 5804 5807 5808 5810 5812 5813 5814 5815 5815 5816
5809 5802 5792 5784 5777 5772 5768 5765 5763 5763 5763 5766 5768 5771 5773 5774 5776 5777 5777 5778 5779 5780 5782 5784 5786 5788 5789 5790 5792 5793 5794 5795 5796 5797 5799 5801 5803 5805 5806 5807 5808 5809 5809 5810
5799 5790 5781 5773 5767 5760 5756 5753 5753 5752 5754 5757 5761 5764 5767 5768 5770 5771 5772 5772 5773 5774 5776 5777 5779 5781 5781 5783 5785 5786 5787 5788 5789 5791 5794 5797 5799 5801 5801 5802 5803 5804 5804 5803
5791 5782 5774 5766 5760 5754 5751 5748 5746 5747 5749 5753 5756 5762 5762 5764 5767 5767 5768 5768 5768 5769 5771 5773 5774 5775 5776 5778 5780 5780 5782 5783 5786 5788 5791 5793 5795 5797 5798 5798 5799 5799 5798 5798
5786 5778 5770 5764 5757 5751 5747 5745 5744 5745 5747 5750 5753 5760 5760 5762 5764 5765 5765 5765 5765 5766 5768 5769 5770 5771 5772 5773 5776 5779 5782 5783 5785 5787 5789 5791 5792 5793 5794 5794 5794 5794 5793 5793
5783 5775 5769 5764 5759 5753 5747 5745 5744 5745 5747 5750 5754 5760 5759 5761 5762 5762 5763 5763 5763 5764 5766 5767 5768 5770 5771 5773 5776 5779 5781 5783 5785 5787 5789 5790 5790 5790 5790 5789 5789 5788 5788 5787
5783 5775 5770 5764 5758 5754 5751 5748 5748 5749 5750 5753 5755 5758 5760 5761 5761 5762 5762 5763 5763 5764 5765 5767 5769 5771 5773 5775 5777 5779 5781 5783 5784 5786 5787 5787 5787 5786 5785 5785 5784 5783 5782 5781
5785 5778 5772 5767 5762 5759 5756 5754 5753 5754 5755 5757 5759 5761 5761 5762 5762 5763 5763 5763 5764 5766 5767 5768 5770 5772 5774 5776 5778 5780 5781 5782 5783 5784 5784 5783 5783 5782 5781 5780 5778 5777 5777 5776
5788 5782 5777 5773 5769 5766 5763 5761 5760 5760 5761 5762 5763 5764 5764 5764 5764 5765 5765 5765 5766 5768 5769 5770 5772 5773 5775 5777 5778 5779 5780 5780 5781 5780 5780 5780 5779 5778 5776 5775 5774 5772 5771 5770
5792 5787 5782 5778 5775 5772 5769 5768 5767 5766 5766 5767 5767 5768 5767 5768 5768 5768 5768 5768 5769 5770 5771 5773 5774 5775 5776 5777 5777 5777 5778 5778 5778 5778 5777 5776 5775 5773 5772 5770 5769 5767 5766 5764
5796 5791 5787 5783 5781 5778 5778 5773 5773 5772 5772 5772 5772 5772 5772 5772 5772 5772 5772 5772 5773 5773 5774 5775 5776 5776 5777 5777 5777 5777 5777 5776 5776 5775 5774 5772 5771 5769 5767 5765 5764 5762 5760 5759
5800 5796 5792 5788 5786 5783 5782 5780 5779 5778 5777 5777 5777 5777 5777 5777 5777 5777 5777 5777 5777 5777 5777 5778 5778 5778 5777 5777 5777 5776 5775 5775 5773 5772 5771 5769 5767 5765 5763 5761 5759 5757 5755 5753
5804 5800 5797 5793 5791 5789 5789 5786 5784 5784 5783 5782 5782 5781 5781 5781 5781 5782 5781 5781 5781 5780 5780 5780 5780 5779 5778 5778 5777 5776 5775 5773 5771 5769 5767 5765 5763 5760 5758 5756 5754 5751 5749 5747
5808 5804 5801 5798 5796 5794 5793 5791 5790 5790 5789 5787 5786 5786 5786 5786 5786 5786 5784 5784 5784 5783 5783 5782 5781 5780 5779 5778 5776 5775 5773 5771 5768 5766 5763 5761 5758 5756 5753 5750 5748 5745 5743 5741
5811 5808 5805 5802 5800 5800 5797 5795 5795 5794 5792 5791 5791 5790 5790 5790 5790 5789 5788 5787 5787 5786 5784 5783 5782 5780 5779 5777 5775 5772 5770 5767 5765 5762 5759 5757 5754 5750 5747 5744 5742 5739 5737 5735
5813 5811 5808 5807 5806 5802 5800 5799 5798 5797 5796 5795 5795 5794 5794 5794 5794 5793 5792 5791 5789 5788 5786 5784 5782 5780 5778 5775 5773 5770 5768 5765 5762 5759 5756 5753 5750 5746 5743 5740 5737 5735 5732 5730
5817 5813 5811 5808 5807 5805 5803 5802 5801 5800 5799 5799 5798 5798 5797 5797 5797 5796 5794 5793 5792 5790 5788 5786 5783 5781 5778 5775 5773 5770 5767 5764 5761 5758 5754 5751 5747 5744 5741 5738 5735 5732 5729 5726
5820 5816 5813 5811 5810 5808 5806 5805 5804 5803 5802 5801 5801 5800 5800 5799 5799 5798 5796 5795 5793 5792 5789 5787 5785 5782 5779 5776 5773 5770 5767 5764 5761 5758 5754 5751 5748 5744 5741 5737 5734 5730 5727 5724
5824 5820 5816 5815 5812 5810 5809 5807 5806 5805 5804 5803 5803 5802 5802 5801 5800 5799 5798 5797 5795 5793 5791 5789 5787 5784 5781 5778 5775 5772 5769 5766 5763 5760 5756 5753 5749 5746 5742 5738 5734 5730 5727 5724